Location: Ch�risy
(50.2331°N, 2.9131°E)
Time: 03:17:40
(UTC+00:00)

NOSS 3-1 (C) - Pass Details

Date: 17 January 2021
Orbit: 723 x 1485 km, 63.3° (Epoch: 22 February)

Event Time Altitude Azimuth Distance (km) Brightness Sun altitude
Rises 17:55:59 0° 310° (NW) 3,714 7.1 -15.3°
Reaches altitude 10° 17:58:36 10° 318° (NW) 2,871 6.3 -15.7°
Maximum altitude 18:05:04 40° 27° (NNE) 1,689 4.4 -16.7°
Enters shadow 18:09:08 25° 79° (E) 2,348 4.8 -17.3°
